Tracking 19288 objects as of 20-Nov-2018
HD Live streaming from Space Station
objects crossing your sky now

DIAPASON (D1-A)

Track DIAPASON (D1-A) now!
10-day predictions
DIAPASON (D1-A) is classified as:


NORAD ID: 2016
Int'l Code: 1966-013A
Perigee: 504.4 km
Apogee: 2,358.1 km
Inclination: 34.1 °
Period: 114.3 minutes
Semi major axis: 7802 km
RCS: 1.2804 m2 (large)
Launch date: February 17, 1966
Source: France (FR)
Launch site: HAMMA GUIRA SPACE TRACK RANGE (HGSTR)
aabbcc
Your satellite tracking list
Your tracking list is empty




NASA's NSSDC Master Catalog

Two Line Element Set (TLE):
1  2016U 66013A   18324.53879848  .00000297  00000-0  79058-4 0  9996
2  2016  34.0973  99.0699 1187966 237.1299 110.9480 12.59717261390602
Source of the keplerian elements: AFSPC